Location: Oberkirch
(48.5323°N, 8.0787°E)
Time: 16:14:37
(UTC+00:00)

Vanguard 1 Rocket - Visible Passes

Search period start: 10 February 2026 00:00
Search period end: 20 February 2026 00:00
Orbit: 652 x 4215 km, 34.3° (Epoch: 8 February)

Date Brightness Start Highest point End Pass type
(mag) Time Alt. Az. Time Alt. Az. Time Alt. Az.
10 Feb 10.9 16:43:48 10° WSW 17:01:13 54° S 17:25:54 10° ESE visible
10 Feb 11.1 19:10:49 10° W 19:31:18 45° SSW 19:49:34 19° SSE visible
10 Feb 11.4 21:42:38 10° W 21:59:24 23° SW 22:06:46 20° SSW visible
11 Feb 11.0 17:56:59 10° W 18:15:58 51° SSW 18:40:09 10° SE visible
11 Feb 11.3 20:25:57 10° W 20:45:16 32° SW 20:58:56 20° S visible
12 Feb 10.9 16:43:57 10° WSW 17:00:43 53° S 17:25:10 10° ESE visible
12 Feb 11.2 19:11:01 10° W 19:30:29 41° SSW 19:51:12 13° SSE visible
12 Feb 11.6 21:44:02 10° W 21:58:14 19° SW 22:08:26 14° SSW visible
13 Feb 11.1 17:57:11 10° W 18:15:21 47° SSW 18:39:09 10° SE visible
13 Feb 11.5 20:26:32 10° W 20:44:15 28° SW 21:00:47 13° S visible
14 Feb 11.0 16:44:10 10° WSW 17:00:16 51° S 17:24:18 10° ESE visible
14 Feb 11.3 19:11:22 10° W 19:29:41 36° SSW 19:51:14 10° SSE visible
14 Feb 11.7 21:46:41 10° WSW 21:57:05 14° SW 22:07:32 10° SSW visible
15 Feb 11.2 17:57:28 10° W 18:14:45 43° SSW 18:37:54 10° SE visible
15 Feb 11.6 20:27:31 10° W 20:43:16 23° SW 21:00:16 10° S visible
16 Feb 11.0 16:44:27 10° W 16:59:51 48° SSW 17:23:15 10° SE visible
16 Feb 11.5 19:11:54 10° W 19:28:54 32° SW 19:49:18 10° SSE visible
17 Feb 11.3 17:57:52 10° W 18:14:10 39° SSW 18:36:22 10° SSE visible
17 Feb 11.8 20:29:10 10° W 20:42:20 18° SW 20:56:42 10° SSW visible
18 Feb 11.6 19:12:44 10° W 19:28:08 27° SW 19:46:52 10° S visible
19 Feb 11.4 17:58:26 10° W 18:13:39 34° SSW 18:34:30 10° SSE visible
19 Feb 11.9 20:32:13 10° WSW 20:41:27 14° SW 20:51:28 10° SSW visible
